Poplar Bluff, MO

3:47 PM CDT on August 17, 2019 (GMT -0500)
Poplar Bluff Municipal

Weather History for KPOF - June, 2019

Change the Weather History Date:

Wednesday, June 5, 2019

  Actual Average Record
Temperature  
Mean Temperature 80 °F -  
Max Temperature 91 °F 83 °F 97 °F (1971)
Min Temperature 71 °F 62 °F 46 °F (1954)
Cooling Degree Days 15    
Growing Degree Days 30 (Base 50)    
Moisture  
Dew Point 73 °F    
Average Humidity 82    
Maximum Humidity 100    
Minimum Humidity 55    
Precipitation  
Precipitation 0.06 in - - ()
Sea Level Pressure  
Sea Level Pressure 29.84 in    
Wind  
Wind Speed 5 mph (SW)    
Max Wind Speed 14 mph    
Max Gust Speed 18 mph    
Visibility 10 miles    
Events Rain , Thunderstorm    
Averages and records for this station are not official NWS values.
T = Trace of Precipitation, MM = Missing Value Source: NWS Daily Summary

Daily Weather History Graph

Daily Weather History Graph

Search for Another Location

Airport or City:

Astronomy

Jun. 05, 2019 Rise Set
Actual Time 5:42 AM CDT 8:17 PM CDT
Civil Twilight 5:12 AM CDT 8:47 PM CDT
Nautical Twilight 4:34 AM CDT 9:25 PM CDT
Astronomical Twilight 3:52 AM CDT 10:07 PM CDT
Moon 7:48 AM CDT (6/5) 10:44 PM CDT (6/5)
Length of Visible Light 15h 35m
Length of Day
14h 34m
Waxing Crescent, 7% of the Moon is Illuminated
Jun 5
Waxing Crescent
Jun 10
First Quarter
Jun 17
Full
Jun 25
Last Quarter
Jul 2
New

Hourly Weather History & Observations

Time (CDT) Temp. Heat Index Dew Point Humidity Pressure Visibility Wind Dir Wind Speed Gust Speed Precip Events Conditions
12:39 AM 72.0 °F - 71.1 °F 97% 29.92 in 2.0 mi West 3.5 mph - 0.03 in Rain , Thunderstorm Heavy Thunderstorms and Rain
12:53 AM 72.0 °F - 71.1 °F 97% 29.90 in 10.0 mi Calm Calm - 0.06 in Thunderstorm Thunderstorm
1:09 AM 72.0 °F - 71.1 °F 97% 29.90 in 10.0 mi Calm Calm - N/A   Clear
1:53 AM 72.0 °F - 71.1 °F 97% 29.87 in 10.0 mi South 6.9 mph - N/A   Clear
2:53 AM 71.1 °F - 71.1 °F 100% 29.85 in 10.0 mi SSW 6.9 mph - N/A   Clear
3:53 AM 71.1 °F - 70.0 °F 96% 29.85 in 10.0 mi South 3.5 mph - N/A   Clear
4:53 AM 71.1 °F - 71.1 °F 100% 29.86 in 9.0 mi SSW 3.5 mph - N/A   Clear
5:53 AM 71.1 °F - 71.1 °F 100% 29.86 in 7.0 mi Calm Calm - N/A   Clear
6:53 AM 72.0 °F - 71.1 °F 97% 29.86 in 8.0 mi Calm Calm - N/A   Clear
7:53 AM 75.0 °F - 72.0 °F 90% 29.86 in 9.0 mi WSW 6.9 mph - N/A   Clear
8:53 AM 79.0 °F - 73.9 °F 84% 29.86 in 10.0 mi South 6.9 mph - N/A   Clear
9:53 AM 81.0 °F 86.7 °F 75.0 °F 82% 29.85 in 10.0 mi SSW 9.2 mph - N/A   Clear
10:53 AM 82.9 °F 89.4 °F 73.9 °F 74% 29.85 in 10.0 mi SW 10.4 mph - N/A   Clear
11:53 AM 86.0 °F 95.1 °F 75.0 °F 70% 29.85 in 10.0 mi SSW 11.5 mph - N/A   Clear
12:53 PM 86.0 °F 93.8 °F 73.9 °F 67% 29.85 in 10.0 mi SSW 11.5 mph - N/A   Partly Cloudy
1:53 PM 87.1 °F 95.4 °F 73.9 °F 65% 29.82 in 10.0 mi SW 13.8 mph - N/A   Scattered Clouds
2:53 PM 88.0 °F 95.6 °F 73.0 °F 61% 29.81 in 10.0 mi WSW 10.4 mph - N/A   Partly Cloudy
3:53 PM 89.1 °F 95.0 °F 71.1 °F 55% 29.81 in 10.0 mi SW 11.5 mph 18.4 mph N/A   Clear
4:53 PM 89.1 °F 95.0 °F 71.1 °F 55% 29.78 in 10.0 mi SW 10.4 mph - N/A   Clear
5:53 PM 87.1 °F 93.6 °F 72.0 °F 61% 29.77 in 10.0 mi SW 6.9 mph - N/A   Clear
6:53 PM 84.9 °F 90.1 °F 71.1 °F 63% 29.77 in 10.0 mi SW 6.9 mph - N/A   Clear
7:53 PM 82.9 °F 89.4 °F 73.9 °F 74% 29.76 in 10.0 mi SSW 10.4 mph - N/A   Clear
8:53 PM 81.0 °F 86.7 °F 75.0 °F 82% 29.78 in 10.0 mi SW 8.1 mph - N/A   Clear
9:53 PM 80.1 °F 84.5 °F 73.9 °F 81% 29.82 in 10.0 mi SW 6.9 mph - N/A   Clear
10:46 PM 79.0 °F - 73.9 °F 84% 29.85 in 10.0 mi SW 4.6 mph - N/A   Mostly Cloudy
10:53 PM 79.0 °F - 73.9 °F 84% 29.83 in 10.0 mi SW 5.8 mph - N/A   Mostly Cloudy
11:13 PM 79.0 °F - 73.9 °F 84% 29.84 in 10.0 mi SW 6.9 mph - N/A   Overcast
11:44 PM 78.1 °F - 73.9 °F 87% 29.85 in 10.0 mi NW 3.5 mph - N/A Thunderstorm Mostly Cloudy
11:53 PM 77.0 °F - 73.0 °F 88% 29.85 in 10.0 mi NE 10.4 mph 16.1 mph N/A   Overcast